Paauilo, HI

1:35 PM HST on February 25, 2017 (GMT -1000)
Bradshaw Army Air Field

Weather History for PHSF - March, 2014

Change the Weather History Date:

Monday, March 24, 2014

  Actual Average Record
Temperature  
Mean Temperature 55 °F -  
Max Temperature 64 °F 65 °F 73 °F (2002)
Min Temperature 46 °F 45 °F 37 °F (1999)
Degree Days  
Heating Degree Days 10    
Growing Degree Days 5 (Base 50)    
Moisture  
Dew Point 50 °F    
Average Humidity 78    
Maximum Humidity 93    
Minimum Humidity 67    
Precipitation  
Precipitation 0.00 in - - ()
Sea Level Pressure  
Sea Level Pressure 30.16 in    
Wind  
Wind Speed 9 mph (SSE)    
Max Wind Speed 20 mph    
Max Gust Speed 26 mph    
Visibility 11 miles    
Events      
Averages and records for this station are not official NWS values.
T = Trace of Precipitation, MM = Missing Value Source: NWS Daily Summary

Daily Weather History Graph

Daily Weather History Graph

Search for Another Location

Airport or City:

Trip Planner

Search our weather history database for the weather conditions in past years. The results will help you decide how hot, cold, wet, or windy it might be!

Date:

Astronomy

Mar. 24, 2014 Rise Set
Actual Time 6:22 AM HST 6:34 PM HST
Civil Twilight 6:00 AM HST 6:56 PM HST
Nautical Twilight 5:35 AM HST 7:21 PM HST
Astronomical Twilight 5:09 AM HST 7:47 PM HST
Moon 1:20 AM HST (3/24) 12:52 PM HST (3/24)
Length of Visible Light 12h 55m
Length of Day
12h 11m
Last Quarter, 40% of the Moon is Illuminated
Mar 24
Last Quarter
Mar 30
New
Apr 6
First Quarter
Apr 14
Full
Apr 21
Last Quarter

Hourly Weather History & Observations

Time (HST) Temp. Windchill Dew Point Humidity Pressure Visibility Wind Dir Wind Speed Gust Speed Precip Events Conditions
12:56 AM 48.0 °F - 45.3 °F 90% 30.06 in 12.0 mi ESE 5.8 mph - N/A   Clear
1:56 AM 48.4 °F - 46.6 °F 93% 30.04 in 12.0 mi SE 6.9 mph - N/A   Clear
2:56 AM 47.5 °F - 45.0 °F 91% 30.03 in 12.0 mi SE 8.1 mph - N/A   Clear
3:56 AM 46.9 °F - 44.8 °F 92% 30.04 in 12.0 mi ESE 5.8 mph - N/A   Clear
4:56 AM 47.5 °F - 44.4 °F 89% 30.06 in 12.0 mi ESE 2.3 mph - N/A   Clear
5:56 AM 46.8 °F - 42.4 °F 85% 30.08 in 12.0 mi ESE 6.9 mph - N/A   Partly Cloudy
6:56 AM 48.9 °F - 45.1 °F 87% 30.09 in 12.0 mi ESE 2.3 mph - N/A   Partly Cloudy
7:56 AM 56.7 °F - 49.1 °F 76% 30.09 in 12.0 mi WSW 1.2 mph - N/A   Clear
8:56 AM 59.0 °F - 51.6 °F 76% 30.11 in 12.0 mi SSE 10.4 mph 16.1 mph N/A   Clear
9:56 AM 60.4 °F - 52.9 °F 76% 30.09 in 12.0 mi South 10.4 mph 20.7 mph N/A   Clear
10:14 AM 60.8 °F - 53.6 °F 77% 30.40 in 12.0 mi SSE 16.1 mph 25.3 mph N/A   Clear
10:43 AM 60.8 °F - 53.6 °F 77% 30.40 in 12.0 mi South 11.5 mph 20.7 mph N/A   Partly Cloudy
10:56 AM 61.9 °F - 53.4 °F 74% 30.08 in 11.0 mi South 10.4 mph 24.2 mph N/A   Partly Cloudy
11:22 AM 62.6 °F - 53.6 °F 72% 30.40 in 11.0 mi SSE 15.0 mph 20.7 mph N/A   Partly Cloudy
11:56 AM 63.0 °F - 53.4 °F 71% 30.09 in 8.0 mi South 11.5 mph 20.7 mph N/A   Partly Cloudy
12:56 PM 64.8 °F - 53.8 °F 68% 30.06 in 10.0 mi South 8.1 mph 18.4 mph N/A   Partly Cloudy
1:56 PM 63.3 °F - 53.6 °F 71% 30.04 in 9.0 mi WSW 5.8 mph - N/A   Scattered Clouds
2:32 PM 62.6 °F - 51.8 °F 68% 30.33 in 11.0 mi SE 15.0 mph 24.2 mph N/A   Scattered Clouds
2:56 PM 63.7 °F - 52.5 °F 67% 30.32 in 7.0 mi SE 16.1 mph 23.0 mph N/A   Clear
3:36 PM 62.6 °F - 53.6 °F 72% 30.31 in 8.0 mi SE 15.0 mph 24.2 mph N/A   Clear
3:39 PM 62.6 °F - 51.8 °F 68% 30.30 in 7.0 mi SSE 19.6 mph 25.3 mph N/A   Partly Cloudy
3:43 PM 62.6 °F - 51.8 °F 68% 30.32 in 5.0 mi South 12.7 mph 26.5 mph N/A   Partly Cloudy
3:56 PM 63.1 °F - 52.5 °F 68% 30.01 in 7.0 mi SSE 8.1 mph 26.5 mph N/A   Partly Cloudy
4:03 PM 62.6 °F - 51.8 °F 68% 30.32 in 11.0 mi SE 13.8 mph 23.0 mph N/A   Partly Cloudy
4:56 PM 63.5 °F - 52.9 °F 68% 30.01 in 12.0 mi West 8.1 mph - N/A   Mostly Cloudy
5:56 PM 58.5 °F - 51.4 °F 77% 30.06 in 12.0 mi SSE 9.2 mph 15.0 mph N/A   Scattered Clouds
6:01 PM 59.0 °F - 51.8 °F 77% 30.35 in 12.0 mi South 10.4 mph - N/A   Mostly Cloudy
6:06 PM 57.2 °F - 50.0 °F 77% 30.35 in 12.0 mi SSE 10.4 mph - N/A   Scattered Clouds
6:56 PM 53.6 °F - 49.3 °F 85% 30.10 in 12.0 mi SSE 9.2 mph 16.1 mph N/A   Scattered Clouds
7:56 PM 50.7 °F - 48.4 °F 92% 30.10 in 12.0 mi SE 13.8 mph 19.6 mph N/A   Scattered Clouds
8:56 PM 50.0 °F - 45.3 °F 84% 30.11 in 12.0 mi SE 6.9 mph - N/A   Partly Cloudy
9:56 PM 48.6 °F - 45.7 °F 90% 30.13 in 12.0 mi SE 8.1 mph - N/A   Partly Cloudy
10:56 PM 47.8 °F - 44.4 °F 88% 30.14 in 12.0 mi ESE 6.9 mph - N/A   Partly Cloudy
11:56 PM 46.4 °F 43.5 °F 41.0 °F 81% 30.12 in 12.0 mi ESE 5.8 mph - N/A   Clear